Location: Newark
(50.5930°N, 3.6720°W)
Time: 18:39:58
(UTC+00:00)

Envisat - Visible Passes

Search period start: 25 August 2019 00:00
Search period end: 04 September 2019 00:00
Orbit: 764 x 766 km, 98.1° (Epoch: 25 August)

Date Brightness Start Highest point End Pass type
(mag) Time Alt. Az. Time Alt. Az. Time Alt. Az.
26 Aug 6.0 19:56:23 10° WSW 19:59:14 15° W 20:02:07 10° NW visible
29 Aug 5.8 19:44:22 10° SW 19:47:50 18° W 19:51:20 10° NW visible
31 Aug 6.3 20:12:25 10° W 20:13:44 11° W 20:15:04 10° WNW visible
01 Sep 5.7 19:32:31 10° SW 19:36:27 22° W 19:40:25 10° NW visible
03 Sep 6.0 19:59:46 10° WSW 20:02:19 14° W 20:04:52 10° NW visible
